Location: Dampvalley
(47.9094°N, 6.1967°E)
Time: 01:49:39
(UTC+00:00)

N. Korean satellite - Pass Details

Date: 24 September 2021
Orbit: 450 x 495 km, 97.3° (Epoch: 18 October)

Event Time Altitude Azimuth Distance (km) Brightness Sun altitude
Rises 03:58:15 0° 28° (NNE) 2,522 10.9 -15.1°
Reaches altitude 10° 04:00:53 10° 50° (NE) 1,649 10.3 -14.7°
Maximum altitude 04:03:15 17° 92° (E) 1,291 9.8 -14.3°
Drops below altitude 10° 04:05:37 10° 134° (SE) 1,657 9.7 -13.9°
Sets 04:08:15 0° 155° (SSE) 2,540 10.3 -13.5°
